This is the latest recevied weather packets stored in our database for station/object OE-11061. If no packets are shown the sender has not sent any weather packets the latest 10 day(s).
| Time | Temp. | Humidity | Pressure | Rain* | Wind** | Luminosity | Snow |
|---|---|---|---|---|---|---|---|
| 1787648119 | 17.78° C | 72% | 1011.7 hPa | 0 mm | - | 187 W/m² | - |
| 1787647291 | 17.22° C | 72% | 1011.7 hPa | 0 mm | - | 127 W/m² | - |
| 1787646919 | 17.78° C | 74% | 1011.4 hPa | 0 mm | - | 127 W/m² | - |
| 1787646319 | 17.78° C | 72% | 1011.3 hPa | 0 mm | - | 164 W/m² | - |
| 1787645491 | 17.78° C | 73% | 1011.1 hPa | 0 mm | - | 209 W/m² | - |
| 1787645119 | 17.78° C | 71% | 1010.9 hPa | 0 mm | - | 202 W/m² | - |
| 1787644519 | 17.22° C | 74% | 1011.1 hPa | 0 mm | - | 194 W/m² | - |
| 1787643693 | 17.22° C | 77% | 1010.9 hPa | 0 mm | - | 179 W/m² | - |
| 1787643320 | 17.22° C | 76% | 1010.4 hPa | 0 mm | - | 157 W/m² | - |
| 1787642720 | 17.22° C | 66% | 1009.8 hPa | 0 mm | - | 149 W/m² | - |
| 1787641893 | 17.22° C | 68% | 1009.6 hPa | 0 mm | - | 149 W/m² | - |
| 1787641519 | 17.22° C | 70% | 1009.4 hPa | 0 mm | - | 149 W/m² | - |
| 1787640919 | 16.67° C | 72% | 1009.4 hPa | 0 mm | - | 142 W/m² | - |
| 1787640093 | 16.67° C | 70% | 1009.3 hPa | 0 mm | - | 112 W/m² | - |
| 1787639719 | 16.67° C | 72% | 1009.3 hPa | 0 mm | - | 97 W/m² | - |
| 1787639120 | 16.11° C | 73% | 1009.3 hPa | 0 mm | - | 90 W/m² | - |
| 1787638292 | 16.11° C | 74% | 1009.4 hPa | 0 mm | - | 82 W/m² | - |
| 1787637920 | 16.11° C | 72% | 1009.1 hPa | 0 mm | - | 75 W/m² | - |
| 1787637320 | 16.11° C | 71% | 1009.1 hPa | 0 mm | - | 67 W/m² | - |
| 1787636492 | 16.11° C | 73% | 1009 hPa | 0 mm | - | 60 W/m² | - |
| 1787636119 | 16.11° C | 70% | 1008.9 hPa | 0 mm | - | 52 W/m² | - |
| 1787635519 | 16.11° C | 68% | 1009 hPa | 0 mm | - | 45 W/m² | - |
| 1787634693 | 16.11° C | 69% | 1009 hPa | 0 mm | - | 37 W/m² | - |
| 1787634320 | 15.56° C | 70% | 1009 hPa | 0 mm | - | 45 W/m² | - |
| 1787633719 | 15.56° C | 70% | 1009.2 hPa | 0 mm | - | 30 W/m² | - |
* Rain latest hour (hover to see other rain measurements)
** Current wind speed in m/s (hover to see current wind gust speed)